This demonstration page uses our WeatherBlox Daily Observations layout. Learn more.

40.92945, -100.16068

Hourly Observations for August 5, 2016

Temp ( °F °C ) Dew Point ( °F °C ) Humidity (%) Winds ( mph kmh ) Pressure ( in mb ) Visibility ( mi km ) Precip ( " mm )
12:15 am 00:15 Clear 64 17.6 57 13.8 79 79 N 3 6 29.97 1015 10 16.09344 0 0
12:35 am 00:35 Clear 63 17.4 57 13.8 80 80 N 3 6 29.97 1015 10 16.09344 0 0
12:55 am 00:55 Clear 63 17.4 57 14 81 81 Calm 29.97 1015 10 16.09344 0 0
1:15 am 01:15 Clear 62 16.6 57 14 85 85 W 3 6 30 1016 10 16.09344 0 0
1:35 am 01:35 Clear 62 16.5 57 13.7 84 84 N 6 9 30 1016 10 16.09344 0 0
1:55 am 01:55 Clear 61 16.2 57 13.7 85 85 N 3 6 30 1016 10 16.09344 0 0
2:15 am 02:15 Clear 62 16.9 56 13.5 81 81 Calm 29.97 1015 10 16.09344 0 0
2:35 am 02:35 Mostly Cloudy 63 17.1 56 13.5 80 80 Calm 29.97 1015 10 16.09344 0 0
2:55 am 02:55 Cloudy 63 17.2 57 14.1 82 82 SSE 5 7 30 1016 10 16.09344 0 0
3:15 am 03:15 Mostly Cloudy 63 17.1 58 14.2 83 83 Calm 29.97 1015 10 16.09344 0 0
3:55 am 03:55 Cloudy 62 16.6 59 15 90 90 Calm 30.03 1017 10 16.09344 0 0
4:15 am 04:15 Mostly Cloudy 61 16.3 58 14.7 90 90 W 5 7 30.03 1017 10 16.09344 0 0
4:35 am 04:35 Cloudy 62 16.6 59 15.1 91 91 NW 3 6 30.06 1018 10 16.09344 0 0
4:55 am 04:55 Cloudy 63 17.3 60 15.3 88 88 Calm 30.06 1018 10 16.09344 0 0
5:15 am 05:15 Cloudy 63 17.3 60 15.7 90 90 Calm 30.06 1018 10 16.09344 0 0
5:35 am 05:35 Mostly Cloudy 63 17.1 60 15.6 91 91 NE 3 6 30 1016 10 16.09344 0 0
5:55 am 05:55 Mostly Cloudy 62 16.7 58 14.5 87 87 N 5 7 30.03 1017 10 16.09344 0 0
6:15 am 06:15 Mostly Cloudy 62 16.7 58 14.5 87 87 NNE 7 11 30.03 1017 10 16.09344 0 0
6:35 am 06:35 Cloudy 63 17 58 14.3 84 84 NE 3 6 30.06 1018 10 16.09344 0 0
6:55 am 06:55 Mostly Cloudy 63 17 58 14.3 84 84 NE 5 7 30.06 1018 10 16.09344 0 0
7:15 am 07:15 Cloudy 63 17.3 58 14.5 84 84 NNE 5 7 30.06 1018 10 16.09344 0 0
7:35 am 07:35 Cloudy 64 17.5 58 14.5 83 83 Calm 30.09 1019 10 16.09344 0 0
7:55 am 07:55 Cloudy 64 18 59 14.9 82 82 Calm 30.06 1018 10 16.09344 0 0
8:15 am 08:15 Cloudy 64 18 59 15 83 83 Calm 30.06 1018 10 16.09344 0 0
8:35 am 08:35 Cloudy 64 18 60 15.5 85 85 NNW 3 6 30.06 1018 10 16.09344 0 0
8:55 am 08:55 Cloudy 65 18.5 60 15.5 83 83 NE 3 6 30.06 1018 10 16.09344 0 0
9:15 am 09:15 Cloudy 67 19.2 60 15.4 79 79 ENE 3 6 30.06 1018 10 16.09344 0 0
9:35 am 09:35 Mostly Cloudy 68 20.1 60 15.3 74 74 E 5 7 30.06 1018 10 16.09344 0 0
9:55 am 09:55 Partly Cloudy 70 21.1 58 14.7 67 67 ESE 8 13 30.03 1017 10 16.09344 0 0
10:15 am 10:15 Sunny 72 22 59 14.9 64 64 E 6 9 30.03 1017 10 16.09344 0 0
10:35 am 10:35 Partly Cloudy 71 21.7 58 14.7 65 65 E 6 9 30.03 1017 10 16.09344 0 0
10:55 am 10:55 Partly Cloudy 72 22 59 14.8 64 64 E 5 7 30.03 1017 10 16.09344 0 0
11:15 am 11:15 Partly Cloudy 72 22 58 14.6 63 63 ENE 6 9 30.03 1017 10 16.09344 0 0
11:35 am 11:35 Sunny 72 22.3 58 14.2 60 60 ENE 6 9 30.03 1017 10 16.09344 0 0
11:55 am 11:55 Sunny 73 22.8 58 14.5 60 60 E 3 6 30.03 1017 10 16.09344 0 0
12:15 pm 12:15 Sunny 75 23.8 58 14.3 55 55 E 6 9 30.03 1017 10 16.09344 0 0
12:35 pm 12:35 Partly Cloudy 75 24 58 14.4 55 55 E 8 13 30.03 1017 10 16.09344 0 0
12:55 pm 12:55 Sunny 75 24.1 58 14.3 54 54 ENE 6 9 30.03 1017 10 16.09344 0 0
1:15 pm 13:15 Partly Cloudy 75 24 57 14 54 54 NE 8 13 30.03 1017 10 16.09344 0 0
1:35 pm 13:35 Mostly Cloudy 74 23.5 57 13.8 55 55 NE 8 13 30.03 1017 10 16.09344 0 0
1:55 pm 13:55 Partly Cloudy 75 23.8 56 13.4 52 52 NE 9 15 30.03 1017 10 16.09344 0 0
2:15 pm 14:15 Sunny 75 24.1 57 14.1 54 54 NNE 9 15 30.03 1017 10 16.09344 0 0
2:35 pm 14:35 Partly Cloudy 75 24 58 14.5 55 55 NNE 6 9 30.03 1017 10 16.09344 0 0
2:55 pm 14:55 Partly Cloudy 75 23.9 57 13.8 53 53 NNE 7 11 30.03 1017 10 16.09344 0 0
3:15 pm 15:15 Partly Cloudy 76 24.3 59 14.9 56 56 NNE 12 19 30.03 1017 10 16.09344 0 0
3:35 pm 15:35 Sunny 75 24 56 13.6 52 52 N 7 11 30.03 1017 10 16.09344 0 0
3:55 pm 15:55 Mostly Cloudy 75 24 56 13.2 51 51 NNE 6 9 30.03 1017 10 16.09344 0 0
4:15 pm 16:15 Partly Cloudy 74 23.5 55 12.7 51 51 NNE 7 11 30.03 1017 10 16.09344 0 0
4:35 pm 16:35 Partly Cloudy 74 23.6 56 13.3 53 53 NNE 9 15 30 1016 10 16.09344 0 0
4:55 pm 16:55 Mostly Cloudy 75 23.9 56 13.6 53 53 NNE 12 19 30 1016 10 16.09344 0 0
5:15 pm 17:15 Mostly Cloudy 74 23.2 57 13.8 56 56 NE 10 17 30 1016 10 16.09344 0 0
5:35 pm 17:35 Mostly Cloudy 75 23.9 56 13.5 52 52 NNE 9 15 30 1016 10 16.09344 0 0
5:55 pm 17:55 Partly Cloudy 73 23 55 13 53 53 NNE 9 15 30 1016 10 16.09344 0 0
6:15 pm 18:15 Partly Cloudy 73 22.8 56 13.5 56 56 NNE 7 11 30 1016 10 16.09344 0 0
6:35 pm 18:35 Cloudy 73 22.7 56 13.5 56 56 NE 8 13 30 1016 10 16.09344 0 0
6:55 pm 18:55 Cloudy 73 22.5 55 12.7 54 54 NNE 10 17 30 1016 10 16.09344 0 0
7:15 pm 19:15 Cloudy 72 22 54 12.4 55 55 NE 10 17 30 1016 10 16.09344 0 0
7:35 pm 19:35 Cloudy 71 21.6 55 12.6 57 57 NNE 8 13 30 1016 10 16.09344 0 0
7:55 pm 19:55 Partly Cloudy 70 21.2 54 12.3 57 57 NNE 7 11 30 1016 10 16.09344 0 0
8:15 pm 20:15 Sunny 69 20.6 55 12.5 60 60 NE 5 7 30.03 1017 10 16.09344 0 0
8:35 pm 20:35 Sunny 68 20.1 56 13.3 65 65 ENE 5 7 30.03 1017 10 16.09344 0 0
8:55 pm 20:55 Partly Cloudy 68 19.8 57 13.7 68 68 NE 3 6 30.03 1017 10 16.09344 0 0
9:15 pm 21:15 Cloudy 67 19.5 58 14.5 73 73 NE 3 6 30.03 1017 10 16.09344 0 0
9:35 pm 21:35 Partly Cloudy 67 19.2 59 15 77 77 ENE 5 7 30.03 1017 10 16.09344 0 0
9:55 pm 21:55 Mostly Cloudy 67 19.4 58 14.7 74 74 Calm 30.06 1018 10 16.09344 0 0
10:15 pm 22:15 Cloudy 67 19.2 60 15.8 81 81 Calm 30.06 1018 10 16.09344 0 0
10:35 pm 22:35 Cloudy 66 19 60 15.7 81 81 Calm 30.06 1018 10 16.09344 0 0
10:55 pm 22:55 Mostly Cloudy 65 18.6 61 16.3 87 87 NE 3 6 30.06 1018 10 16.09344 0 0
11:15 pm 23:15 Cloudy 66 18.7 60 15.7 83 83 E 3 6 30.03 1017 10 16.09344 0 0
11:35 pm 23:35 Cloudy 66 19.1 59 15 77 77 ENE 3 6 30.03 1017 10 16.09344 0 0
11:55 pm 23:55 Cloudy 67 19.3 58 14.7 75 75 E 5 7 30.06 1018 10 16.09344 0 0

Powered by AerisWeather